NIMIQ 2

Last updated on Jan. 29, 2020, 4:37 a.m. UTC

1 27632U 02062A   20028.81565427 -.00000239  00000-0  00000+0 0  9994
2 27632   4.0402  76.8485 0008723 327.0297 163.3144  1.00271626 62498
UTC
Height (km)
Latitude
Longitude
Inclination
Orbital Period
UTC large
Height (km)
Speed (km/s)
/
Latitude / Longitude
Inclination (degrees)
Orbital Period (minutes)
Azimuth
Elevation
Range (km)
Doppler Factor
iOS Compass Heading
iOS Angle

Next 30 passes for location: Hong Kong

Rise time Rise Azimuth (degrees) Set time Set Azimuth (degrees) Duration Max altitude (degrees)

No matching passes for this satellites